[[{"header":{"parameterUnit":"m.s-1","parameterCategory":1,"la1":30.2991,"la2":30.254,"lo1":-89.0895,"lo2":-89.0444,"dy":0.0017,"dx":0.0017,"nx":28,"ny":28,"refTime":"2025-09-06T03:00:00:Z","depth":0,"parameterNumber":2,"parameterNumberName":"U-component_of_WINDS"},"data":[0,0,0,0,0,0,0,0,0,0,0,0,0,0,0,0,0,0,0,0,0,0,0,0,0,0,0,0,0,0,0,0,0,0,0,0,0,0,0,0,0,0,0,0,0,0,0,0,0,0,0,0,0,0,0,0,0,0,0.6125,0.6125,0,0.6109,0.6109,0.6108,0.611,0.611,0.611,0.611,0.6092,0.6091,0.609,0,0,0,0,0,0,0,0,0,0,0,0,0,0.6157,0.6156,0.6125,0.6125,0.6125,0.6109,0.6109,0.6108,0.611,0.611,0.611,0.6111,0.6092,0.6091,0.609,0,0,0,0,0,0,0,0,0,0,0,0,0,0.6142,0.6156,0.6125,0.6124,0.6123,0.6109,0.6109,0.6108,0.611,0.611,0.611,0.6111,0.6092,0.6091,0.609,0.6076,0,0,0.6087,0.6086,0,0,0,0,0,0,0,0,0.6143,0.6141,0.6124,0.6124,0.6123,0.6112,0.6113,0.6097,0.611,0.6115,0.6111,0.6111,0.6098,0.6096,0.6092,0.6075,0.6074,0.6087,0.6086,0.6085,0.6085,0,0,0,0,0,0,0,0.6144,0.6141,0.6119,0.6124,0.6123,0.6123,0.6122,0.611,0.6104,0.6114,0.6114,0.6113,0.6098,0.6093,0.6092,0.6074,0.6087,0.6086,0.6085,0.6085,0.6043,0.6043,0,0,0,0,0,0,0.6145,0.6142,0.6119,0.6118,0.6134,0.6122,0.6121,0.6115,0.6105,0.6103,0.6112,0.6113,0.6095,0.6093,0.6091,0.6074,0.6085,0.6084,0.6084,0.6044,0.6043,0.6043,0,0,0,0,0,0,0.6146,0.6143,0.612,0.613,0.6127,0.6122,0.6115,0.6115,0.611,0.6103,0.6102,0.6109,0.6095,0.6093,0.608,0.6073,0.6084,0.6083,0.6044,0.6044,0.6043,0.6038,0,0,0,0,0,0,0.6147,0.6144,0.6138,0.613,0.6127,0.6109,0.6115,0.6114,0.6109,0.6109,0.6099,0.6098,0.6095,0.6081,0.6079,0.6072,0.6082,0.6045,0.6044,0.6043,0.6039,0.6038,0.6036,0,0,0,0,0,0.6148,0.6137,0.6138,0.6135,0.612,0.6109,0.6106,0.6104,0.6108,0.6102,0.6098,0.6099,0.6074,0.608,0.6077,0.607,0.6045,0.6044,0.6043,0.604,0.6038,0.6036,0,0,0,0,0,0,0.6144,0.6136,0.6137,0.6123,0.6117,0.6109,0.6102,0.6102,0.6094,0.6095,0.6091,0.6089,0.6076,0.6071,0.6078,0.6055,0.606,0.6059,0.6058,0.6057,0.6055,0.6057,0.6081,0,0,0,0,0,0.6141,0.6133,0.6127,0.6115,0.6112,0.6107,0.6102,0.6101,0.6094,0.6091,0.6085,0.6078,0.6069,0.6062,0.6054,0.6039,0.6036,0.6032,0.6031,0.603,0.6028,0.602,0.6018,0.604,0.604,0.604,0,0,0.6136,0.6131,0.6126,0.6114,0.6109,0.61,0.6105,0.6095,0.6089,0.6089,0.6077,0.6072,0.6064,0.605,0.6043,0.6045,0.6022,0.6028,0.6028,0.6027,0.6019,0.6017,0.6015,0.6039,0.6039,0.6039,0,0,0.6122,0.6117,0.6107,0.6102,0.6094,0.6091,0.6089,0.6081,0.6079,0.6066,0.6067,0.6058,0.6043,0.6037,0.6031,0.6016,0.6016,0.6013,0.6006,0.5998,0.5996,0.5994,0.5989,0.5987,0.6011,0.6011,0.6011,0,0.6115,0.6103,0.6101,0.6092,0.6087,0.6088,0.6078,0.6073,0.6062,0.6058,0.6061,0.6042,0.6036,0.6021,0.6017,0.6013,0.601,0.6014,0.5996,0.5995,0.5993,0.5988,0.5986,0.6011,0.6011,0.6011,0.6011,0,0.6096,0.6087,0.608,0.6071,0.6065,0.6055,0.6052,0.6046,0.6045,0.6042,0.6029,0.6023,0.6012,0.6009,0.6008,0.5993,0.5995,0.5997,0.6002,0.5991,0.5986,0.5983,0.601,0.6011,0.6011,0.6011,0,0,0.6077,0.6068,0.6066,0.6062,0.6054,0.6047,0.6037,0.6028,0.6023,0.6016,0.6007,0.5994,0.5996,0.599,0.5989,0.5982,0.597,0.5985,0.5985,0.5982,0.5953,0.5951,0.5949,0.597,0.597,0.5969,0.5954,0,0.6062,0.6046,0.6044,0.6029,0.6021,0.6022,0.6013,0.6007,0.6004,0.5996,0.5993,0.5984,0.5987,0.5984,0.5977,0.5973,0.5964,0.5974,0.5962,0.5961,0.5963,0.5946,0.5944,0.5929,0.5952,0.5951,0.5951,0,0.6042,0.6035,0.6019,0.6013,0.601,0.6002,0.5994,0.5986,0.5979,0.5978,0.5972,0.5971,0.5961,0.5967,0.5952,0.5959,0.5954,0.5951,0.595,0.5949,0.5955,0.5944,0.5925,0.5922,0.5948,0.5948,0.5948,0,0.603,0.6017,0.6006,0.6002,0.5995,0.5989,0.5986,0.598,0.5974,0.5967,0.5963,0.5954,0.5949,0.5942,0.594,0.5944,0.5925,0.5931,0.5923,0.5923,0.5918,0.5918,0.5898,0.5916,0.5916,0.5916,0.5916,0,0.6013,0.6003,0.6001,0.5994,0.5983,0.5981,0.597,0.5967,0.5961,0.5954,0.5954,0.5946,0.5943,0.5935,0.5933,0.5921,0.5919,0.5916,0.5916,0.5916,0.5916,0.5913,0.5913,0.5915,0.5915,0.5915,0.5915,0,0.5998,0.5996,0.5984,0.5978,0.5976,0.5968,0.5963,0.5956,0.5953,0.5943,0.5941,0.5936,0.5927,0.5924,0.5912,0.591,0.5896,0.5897,0.5899,0.5899,0.5891,0.5892,0.5867,0.5863,0.5884,0.5883,0.5883,0,0.5987,0.5979,0.5973,0.5968,0.5965,0.5957,0.5952,0.595,0.5945,0.5937,0.5931,0.5922,0.5914,0.5899,0.5894,0.5885,0.5885,0.5877,0.5883,0.5884,0.5884,0.5885,0.5884,0.5875,0.5875,0.5875,0.5875,0,0.5968,0.5967,0.596,0.5953,0.5947,0.5941,0.5935,0.5931,0.5928,0.5922,0.5913,0.5907,0.5896,0.5886,0.5877,0.5873,0.5873,0.5873,0.5871,0.5871,0.5872,0.5871,0.5895,0.5873,0.5874,0.5874,0.5874,0.5874,0.5954,0.5948,0.5942,0.5934,0.593,0.5925,0.5918,0.5915,0.5908,0.5899,0.5898,0.5888,0.5881,0.5869,0.5865,0.5857,0.5859,0.5855,0.5854,0.5853,0.5853,0.5874,0.5855,0.5855,0.5855,0.5855,0.5855,0,0.5935,0.5932,0.5924,0.5917,0.591,0.5913,0.5906,0.5901,0.5892,0.5886,0.5879,0.5869,0.586,0.5855,0.5846,0.584,0.584,0.5838,0.5838,0.5837,0.5852,0.5854,0.5838,0.5838,0.5838,0.5838,0.5838,0.5838,0.5924,0.5913,0.5912,0.5899,0.5896,0.5887,0.5883,0.5878,0.5874,0.5862,0.5855,0.5852,0.5846,0.5837,0.5829,0.5828,0.5824,0.5821,0.582,0.5834,0.5836,0.5837,0.584,0.5821,0.5821,0.5806,0.5806,0.5806]},{"header":{"parameterUnit":"m.s-1","parameterCategory":1,"la1":30.2991,"la2":30.254,"lo1":-89.0895,"lo2":-89.0444,"dy":0.0017,"dx":0.0017,"nx":28,"ny":28,"refTime":"2025-09-06T03:00:00:Z","depth":0,"parameterNumber":3,"parameterNumberName":"V-component_of_WINDS"},"data":[0,0,0,0,0,0,0,0,0,0,0,0,0,0,0,0,0,0,0,0,0,0,0,0,0,0,0,0,0,0,0,0,0,0,0,0,0,0,0,0,0,0,0,0,0,0,0,0,0,0,0,0,0,0,0,0,0,0,-0.6639,-0.6639,0,-0.6686,-0.6686,-0.6687,-0.6679,-0.6678,-0.6677,-0.6676,-0.6728,-0.673,-0.6732,0,0,0,0,0,0,0,0,0,0,0,0,0,-0.6547,-0.6549,-0.6639,-0.664,-0.664,-0.6686,-0.6686,-0.6687,-0.6679,-0.6678,-0.6677,-0.6676,-0.6727,-0.673,-0.6732,0,0,0,0,0,0,0,0,0,0,0,0,0,-0.659,-0.655,-0.6639,-0.6642,-0.6642,-0.6685,-0.6686,-0.6687,-0.6679,-0.6678,-0.6677,-0.6675,-0.6726,-0.673,-0.6733,-0.6777,0,0,-0.6743,-0.6744,0,0,0,0,0,0,0,0,-0.6588,-0.6593,-0.6641,-0.6641,-0.6642,-0.6675,-0.6673,-0.6718,-0.6679,-0.6665,-0.6676,-0.6675,-0.6712,-0.6716,-0.6728,-0.678,-0.6782,-0.6743,-0.6745,-0.6746,-0.6747,0,0,0,0,0,0,0,-0.6585,-0.6591,-0.6658,-0.6641,-0.6642,-0.6642,-0.6647,-0.6681,-0.6695,-0.6666,-0.6666,-0.6671,-0.6712,-0.6724,-0.6729,-0.6783,-0.6743,-0.6746,-0.6748,-0.6749,-0.6877,-0.6878,0,0,0,0,0,0,-0.658,-0.6589,-0.6656,-0.6659,-0.6611,-0.6645,-0.665,-0.6666,-0.6694,-0.6698,-0.6672,-0.6671,-0.672,-0.6725,-0.6731,-0.6786,-0.6746,-0.6749,-0.6751,-0.6875,-0.6877,-0.6879,0,0,0,0,0,0,-0.6578,-0.6586,-0.6654,-0.6624,-0.6632,-0.6647,-0.6666,-0.6667,-0.668,-0.6699,-0.6702,-0.6682,-0.6719,-0.6726,-0.6766,-0.6788,-0.6751,-0.6754,-0.6874,-0.6876,-0.6878,-0.6898,0,0,0,0,0,0,-0.6576,-0.6586,-0.6602,-0.6624,-0.6634,-0.6688,-0.6667,-0.6669,-0.6685,-0.6684,-0.6709,-0.6712,-0.6718,-0.6761,-0.6769,-0.6792,-0.6756,-0.6872,-0.6875,-0.6877,-0.6895,-0.69,-0.6905,0,0,0,0,0,-0.6573,-0.6606,-0.6602,-0.6611,-0.6654,-0.6689,-0.6695,-0.67,-0.6687,-0.6704,-0.6717,-0.6712,-0.6784,-0.6765,-0.6774,-0.6798,-0.687,-0.6874,-0.6877,-0.6893,-0.6899,-0.6904,0,0,0,0,0,0,-0.6586,-0.6609,-0.6605,-0.6646,-0.6666,-0.6687,-0.6709,-0.6706,-0.673,-0.6728,-0.6735,-0.6741,-0.6782,-0.6794,-0.6773,-0.6844,-0.6826,-0.6831,-0.6835,-0.6841,-0.6846,-0.6842,-0.6759,0,0,0,0,0,-0.6594,-0.6619,-0.6638,-0.6672,-0.6682,-0.6694,-0.6709,-0.6712,-0.6732,-0.6741,-0.6756,-0.6778,-0.6805,-0.6824,-0.685,-0.6897,-0.6903,-0.6918,-0.6922,-0.6926,-0.6931,-0.6959,-0.6966,-0.6889,-0.6889,-0.6889,0,0,-0.661,-0.6626,-0.6641,-0.6675,-0.6691,-0.6718,-0.6701,-0.673,-0.6751,-0.6746,-0.6785,-0.6797,-0.6821,-0.6865,-0.6885,-0.6877,-0.6954,-0.693,-0.6933,-0.6936,-0.6963,-0.697,-0.6977,-0.6892,-0.6891,-0.6891,0,0,-0.6654,-0.6668,-0.6699,-0.6714,-0.6737,-0.6745,-0.6753,-0.6775,-0.6783,-0.6822,-0.6819,-0.6845,-0.6892,-0.691,-0.6925,-0.6978,-0.6975,-0.6987,-0.7012,-0.7039,-0.7045,-0.705,-0.7071,-0.7078,-0.6991,-0.6991,-0.6991,0,-0.6672,-0.6712,-0.6715,-0.6746,-0.6762,-0.6757,-0.679,-0.6805,-0.6836,-0.6848,-0.6838,-0.6898,-0.6914,-0.6963,-0.6976,-0.6988,-0.6999,-0.6984,-0.7043,-0.7049,-0.7054,-0.7074,-0.7082,-0.6993,-0.6992,-0.6992,-0.6992,0,-0.6734,-0.6762,-0.6785,-0.6814,-0.6833,-0.6864,-0.6874,-0.6892,-0.6894,-0.6903,-0.6944,-0.6963,-0.6995,-0.7006,-0.7008,-0.7056,-0.705,-0.7042,-0.7023,-0.7063,-0.7082,-0.7089,-0.6994,-0.6994,-0.6994,-0.6993,0,0,-0.6788,-0.6819,-0.6828,-0.6842,-0.6868,-0.689,-0.6922,-0.6952,-0.6969,-0.699,-0.7019,-0.7059,-0.7052,-0.707,-0.7073,-0.7097,-0.714,-0.7085,-0.7086,-0.7096,-0.7197,-0.7205,-0.7213,-0.7137,-0.7139,-0.714,-0.7196,0,-0.6836,-0.6891,-0.6896,-0.6946,-0.6974,-0.697,-0.6998,-0.7018,-0.7028,-0.7054,-0.7066,-0.7095,-0.7082,-0.7093,-0.7115,-0.7129,-0.716,-0.7125,-0.7166,-0.7167,-0.7161,-0.7223,-0.7231,-0.7282,-0.7203,-0.7204,-0.7205,0,-0.6899,-0.6923,-0.6975,-0.6999,-0.701,-0.7035,-0.7064,-0.7088,-0.7111,-0.7117,-0.7137,-0.7138,-0.7173,-0.7153,-0.7202,-0.7179,-0.7196,-0.7205,-0.7207,-0.7213,-0.719,-0.7232,-0.7298,-0.7307,-0.7216,-0.7215,-0.7214,0,-0.6936,-0.698,-0.7018,-0.703,-0.7058,-0.7076,-0.7089,-0.711,-0.7129,-0.7154,-0.7166,-0.7196,-0.7212,-0.7236,-0.7245,-0.7229,-0.7296,-0.7275,-0.7303,-0.7303,-0.7318,-0.7318,-0.7391,-0.7327,-0.7327,-0.7326,-0.7326,0,-0.699,-0.7023,-0.7035,-0.7059,-0.7096,-0.7102,-0.714,-0.7152,-0.7172,-0.7199,-0.7198,-0.7224,-0.7234,-0.7262,-0.727,-0.7311,-0.7318,-0.7326,-0.7328,-0.7327,-0.7326,-0.7339,-0.7336,-0.7328,-0.7328,-0.7328,-0.7327,0,-0.7037,-0.7047,-0.7088,-0.7111,-0.7118,-0.7145,-0.7165,-0.7189,-0.7199,-0.7233,-0.7242,-0.7258,-0.7291,-0.7303,-0.7343,-0.7349,-0.7397,-0.7395,-0.7389,-0.739,-0.7418,-0.7416,-0.7504,-0.7517,-0.7442,-0.7443,-0.7443,0,-0.7072,-0.7097,-0.7123,-0.714,-0.7154,-0.7182,-0.72,-0.7208,-0.7227,-0.7256,-0.7277,-0.731,-0.7337,-0.739,-0.7407,-0.7438,-0.7438,-0.7467,-0.7443,-0.7442,-0.7441,-0.744,-0.7444,-0.7472,-0.7473,-0.7473,-0.7474,0,-0.7133,-0.7136,-0.7162,-0.7191,-0.7213,-0.7235,-0.7257,-0.7272,-0.7283,-0.7306,-0.7339,-0.736,-0.7401,-0.7435,-0.7467,-0.7482,-0.7481,-0.7481,-0.7489,-0.749,-0.7486,-0.749,-0.7403,-0.7479,-0.7479,-0.7478,-0.7478,-0.7478,-0.7176,-0.7199,-0.7221,-0.7251,-0.7268,-0.7289,-0.7313,-0.7326,-0.7354,-0.7387,-0.739,-0.7427,-0.7452,-0.7495,-0.7511,-0.7542,-0.7534,-0.7546,-0.7549,-0.7552,-0.7556,-0.7479,-0.7547,-0.7547,-0.7547,-0.7547,-0.7547,0,-0.7239,-0.7253,-0.728,-0.7311,-0.7335,-0.733,-0.7354,-0.7375,-0.7407,-0.743,-0.7456,-0.7496,-0.7528,-0.7547,-0.7581,-0.7601,-0.7602,-0.761,-0.761,-0.7614,-0.7559,-0.755,-0.7609,-0.7609,-0.7609,-0.7609,-0.7609,-0.7609,-0.7274,-0.7314,-0.732,-0.7369,-0.7383,-0.7419,-0.7433,-0.7454,-0.7472,-0.7516,-0.7543,-0.7554,-0.7576,-0.7611,-0.7642,-0.7647,-0.766,-0.767,-0.7674,-0.7624,-0.7617,-0.7611,-0.7602,-0.7672,-0.7672,-0.7726,-0.7727,-0.7727]}]]